Terminal Aerodrome Forecast
Issued by NWS

Home | Current Version | Previous Version | Text Only | Print | Product List | Glossary On
Versions: 1 2 3 4 5 6 7 8 9 10 11 12 13 14 15 16 17 18 19 20 21 22 23 24 25 26 27 28 29 30 31 32 33 34 35 36 37 38 39 40 41 42 43 44 45 46 47 48 49 50
000
FTUS41 KCTP 231505 AAA
TAFBFD
TAF AMD
KBFD 231505Z 2315/2412 09007KT P6SM BKN020 OVC035
     FM231700 12005KT P6SM BKN035
     FM240300 11003KT 4SM BR BKN015
     FM240700 VRB03KT 1/2SM FG OVC002=

USA.gov is the U.S. government's official web portal to all federal, state and local government web resources and services.